Goshen, IN

10:52 AM EST on February 22, 2018 (GMT -0500)
Goshen Municipal

Weather History for KGSH - June, 2014

Change the Weather History Date:

Sunday, June 15, 2014

  Actual Average Record
Temperature  
Mean Temperature 70 °F -  
Max Temperature 84 °F 80 °F 93 °F (1988)
Min Temperature 55 °F 61 °F 46 °F (1963)
Cooling Degree Days 4    
Growing Degree Days 20 (Base 50)    
Moisture  
Dew Point 55 °F    
Average Humidity 56    
Maximum Humidity 72    
Minimum Humidity 41    
Precipitation  
Precipitation 0.00 in - - ()
Sea Level Pressure  
Sea Level Pressure 30.00 in    
Wind  
Wind Speed 10 mph (SSE)    
Max Wind Speed 22 mph    
Max Gust Speed 30 mph    
Visibility 10 miles    
Events      
Averages and records for this station are not official NWS values.
T = Trace of Precipitation, MM = Missing Value Source: NWS Daily Summary

Daily Weather History Graph

Daily Weather History Graph

Search for Another Location

Airport or City:

Trip Planner

Search our weather history database for the weather conditions in past years. The results will help you decide how hot, cold, wet, or windy it might be!

Date:

Astronomy

Jun. 15, 2014 Rise Set
Actual Time 6:08 AM EDT 9:18 PM EDT
Civil Twilight 5:34 AM EDT 9:52 PM EDT
Nautical Twilight 4:50 AM EDT 10:36 PM EDT
Astronomical Twilight 3:58 AM EDT 11:28 PM EDT
Moon 11:26 PM EDT (6/15) 9:02 AM EDT (6/15)
Length of Visible Light 16h 18m
Length of Day
15h 10m
Waning Gibbous, 91% of the Moon is Illuminated
Jun 15
Waning Gibbous
Jun 19
Last Quarter
Jun 27
New
Jul 5
First Quarter
Jul 12
Full

Hourly Weather History & Observations

Time (EDT) Temp. Heat Index Dew Point Humidity Pressure Visibility Wind Dir Wind Speed Gust Speed Precip Events Conditions
12:53 AM 61.0 °F - 46.9 °F 60% 30.06 in 10.0 mi ESE 5.8 mph - N/A   Clear
1:53 AM 59.0 °F - 46.9 °F 64% 30.06 in 10.0 mi SE 4.6 mph - N/A   Clear
2:53 AM 59.0 °F - 46.9 °F 64% 30.06 in 10.0 mi SE 5.8 mph - N/A   Clear
3:53 AM 55.9 °F - 46.9 °F 72% 30.06 in 10.0 mi SE 8.1 mph - N/A   Clear
4:53 AM 57.0 °F - 46.9 °F 69% 30.04 in 10.0 mi SE 9.2 mph - N/A   Clear
5:53 AM 55.9 °F - 46.9 °F 72% 30.05 in 10.0 mi ESE 6.9 mph - N/A   Clear
6:53 AM 57.9 °F - 48.0 °F 70% 30.06 in 10.0 mi SE 9.2 mph - N/A   Clear
7:53 AM 63.0 °F - 51.1 °F 65% 30.06 in 10.0 mi SE 9.2 mph - N/A   Clear
8:53 AM 68.0 °F - 52.0 °F 56% 30.06 in 10.0 mi South 13.8 mph - N/A   Clear
9:53 AM 72.0 °F - 54.0 °F 53% 30.05 in 10.0 mi SSE 11.5 mph - N/A   Clear
10:53 AM 73.0 °F - 54.0 °F 51% 30.04 in 10.0 mi South 17.3 mph - N/A   Clear
11:53 AM 75.0 °F - 55.0 °F 50% 30.04 in 10.0 mi South 17.3 mph 21.9 mph N/A   Clear
12:53 PM 78.1 °F - 55.9 °F 46% 30.01 in 10.0 mi SSE 16.1 mph - N/A   Clear
1:53 PM 81.0 °F 81.0 °F 57.0 °F 44% 29.99 in 10.0 mi South 17.3 mph - N/A   Partly Cloudy
2:53 PM 81.0 °F 80.8 °F 55.9 °F 42% 29.96 in 10.0 mi South 18.4 mph 25.3 mph N/A   Clear
3:53 PM 82.0 °F 82.0 °F 57.9 °F 44% 29.92 in 10.0 mi South 19.6 mph 26.5 mph N/A   Clear
4:53 PM 84.0 °F 83.5 °F 57.9 °F 41% 29.91 in 10.0 mi South 21.9 mph 29.9 mph N/A   Clear
5:53 PM 82.0 °F 82.4 °F 60.1 °F 47% 29.93 in 10.0 mi South 17.3 mph 21.9 mph N/A   Partly Cloudy
6:53 PM 82.0 °F 82.7 °F 61.0 °F 49% 29.93 in 10.0 mi South 11.5 mph - N/A   Scattered Clouds
7:53 PM 82.0 °F 82.7 °F 61.0 °F 49% 29.93 in 10.0 mi South 15.0 mph 20.7 mph N/A   Mostly Cloudy
8:53 PM 80.1 °F 81.2 °F 62.1 °F 54% 29.93 in 10.0 mi South 10.4 mph - N/A   Clear
9:53 PM 79.0 °F - 63.0 °F 58% 29.93 in 10.0 mi South 11.5 mph - N/A   Clear
10:53 PM 77.0 °F - 64.0 °F 64% 29.95 in 10.0 mi South 10.4 mph - N/A   Clear
11:53 PM 75.9 °F - 64.0 °F 67% 29.96 in 10.0 mi South 9.2 mph - N/A   Clear